Notices

Please take our survey and provide feedback: https://eccc.sondage-survey.ca/f/LanguageSelection.aspx?s=442ca660-fcf1-47c0-95a9-59707d6fd709

Please note that the IDF dataset is available through this link: Intensity-Duration-Frequency (IDF) Files .

Hourly Data Report for November 11, 2020

SHEARWATER RCS
NOVA SCOTIA
Current Station Operator: ECCC - MSC

44°37'47.000" N
63°30'48.000" W
24.00 m
8205092
71264
AAW

Download Data

Hourly Data (November 2020)
Hourly Data Report for November 11, 2020
TIME
LST
Temp Definition
°C
Dew Point Definition
°C
Rel Hum Definition
%
Precip. Amount Definition
mm

Wind Dir Definition
10's deg

Wind Spd Definition
km/h
Visibility Definition
km
Stn Press Definition
kPa
Hmdx Definition


Wind Chill Definition


Weather Definition


00:00 10.5 10.0 97 0.0 24 7   101.37     LegendNANA
01:00 11.7 10.9 94 0.0 25 12   101.36     LegendNANA
02:00 11.4 10.9 97 0.0 23 7   101.35     LegendNANA
03:00 11.7 11.1 96 0.0 26 9   101.36     LegendNANA
04:00 11.5 10.9 96 0.0 24 11   101.35     LegendNANA
05:00 11.5 11.0 97 0.0 24 8   101.37     LegendNANA
06:00 11.3 10.8 96 0.0 25 8   101.35     LegendNANA
07:00 11.5 11.0 96 0.0 25 9   101.41     LegendNANA
08:00 11.9 11.4 97 0.0 23 10   101.44     LegendNANA
09:00 11.9 11.4 96 0.0 23 15   101.45     LegendNANA
10:00 12.2 11.5 96 0.0 24 13   101.42     LegendNANA
11:00 13.2 12.3 95 0.0 24 12   101.45     LegendNANA
12:00 14.2 13.1 93 0.0 24 8   101.38     LegendNANA
13:00 15.6 13.7 88 0.0 21 12   101.29     LegendNANA
14:00 15.1 13.3 89 0.0 18 10   101.20     LegendNANA
15:00 17.1 13.4 79 0.0 20 13   101.14     LegendNANA
16:00 15.4 12.8 85 0.0 21 16   101.16     LegendNANA
17:00 14.5 13.0 91 0.0 22 18   101.14     LegendNANA
18:00 14.5 13.2 92 0.0 21 22   101.10     LegendNANA
19:00 14.3 13.2 93 0.0 21 17   101.06     LegendNANA
20:00 14.9 13.6 92 0.0 21 14   101.01     LegendNANA
21:00 15.2 13.8 92 0.0 21 13   101.00     LegendNANA
22:00 14.5 13.8 95 0.0 21 19   100.93     LegendNANA
23:00 15.1 14.4 96 0.0 22 16   100.90     LegendNANA

Notes on Data Quality.

Legend

  • E = Estimated
  • M = Missing
  • NA = Not Available*
  • [empty] = Indicates an unobserved value
Date modified: